Location: Newark
(45.2500°N, 7.5833°E)
Time: 15:28:11
(UTC+00:00)

Envisat - Visible Passes

Search period start: 05 December 2019 00:00
Search period end: 15 December 2019 00:00
Orbit: 764 x 766 km, 98.1° (Epoch: 05 December)

Date Brightness Start Highest point End Pass type
(mag) Time Alt. Az. Time Alt. Az. Time Alt. Az.
05 Dec 3.8 06:06:53 10° NNE 06:11:55 58° E 06:16:55 10° S visible
05 Dec 3.0 17:23:22 10° SSE 17:28:27 89° WSW 17:33:35 10° NNW visible
05 Dec 6.2 19:06:36 10° WSW 19:08:12 11° W 19:09:48 10° WNW visible
06 Dec 5.3 05:30:38 10° NE 05:34:56 27° E 05:39:14 10° SSE visible
06 Dec 3.3 16:47:00 10° SE 16:51:47 44° ENE 16:56:36 10° N visible
06 Dec 5.2 18:26:52 10° SSW 18:30:59 25° W 18:35:09 10° NW visible
07 Dec 6.2 04:55:33 10° ENE 04:57:46 13° E 04:59:58 10° ESE visible
07 Dec 3.8 17:49:03 10° S 17:53:59 52° W 17:58:58 10° NNW visible
08 Dec 4.2 05:55:42 10° NNE 06:00:37 46° E 06:05:28 10° S visible
08 Dec 2.9 17:12:08 10° SSE 17:17:11 74° ENE 17:22:16 10° N visible
08 Dec 5.9 18:54:00 10° WSW 18:56:46 15° W 18:59:32 10° NW visible
09 Dec 5.6 05:19:39 10° NE 05:23:34 22° E 05:27:28 10° SE visible
09 Dec 3.5 16:35:59 10° SE 16:40:34 36° ENE 16:45:11 10° N visible
09 Dec 4.8 18:15:09 10° SSW 18:19:37 31° W 18:24:07 10° NNW visible
10 Dec 3.2 06:21:03 10° NNE 06:26:10 79° ESE 06:31:14 10° S visible
10 Dec 3.4 17:37:38 10° S 17:42:41 66° WSW 17:47:45 10° NNW visible
11 Dec 4.7 05:44:33 10° NNE 05:49:16 37° E 05:53:56 10° SSE visible
11 Dec 3.0 17:00:57 10° SSE 17:05:56 60° ENE 17:10:57 10° N visible
11 Dec 5.6 18:41:53 10° SW 18:45:22 18° W 18:48:51 10° NW visible
12 Dec 5.9 05:08:47 10° NE 05:12:10 18° E 05:15:32 10° SE visible
12 Dec 3.8 16:25:03 10° SE 16:29:23 29° ENE 16:33:44 10° N visible
12 Dec 4.4 18:03:33 10° SSW 18:08:16 38° W 18:13:01 10° NNW visible
13 Dec 3.6 06:09:48 10° NNE 06:14:52 63° E 06:19:53 10° S visible
13 Dec 3.0 17:26:19 10° SSE 17:31:23 82° WSW 17:36:30 10° NNW visible
13 Dec 6.2 19:10:32 10° W 19:11:11 10° W 19:11:51 10° WNW visible
14 Dec 5.1 05:33:28 10° NE 05:37:55 30° E 05:42:19 10° SSE visible
14 Dec 3.2 16:49:51 10° SE 16:54:42 48° ENE 16:59:34 10° N visible
14 Dec 5.3 18:30:00 10° SW 18:33:57 23° W 18:37:57 10° NW visible
